Weather History for Evansville, IN

Change the Weather History Date:

Thursday, May 16, 2013

  Actual Average Record
Temperature  
Mean Temperature 74 °F 66 °F  
Max Temperature 83 °F 77 °F 92 °F (1962)
Min Temperature 65 °F 55 °F 34 °F (1997)
Degree Days  
Heating Degree Days 0 3  
Month to date heating degree days 64 61  
Since 1 July heating degree days 4512 4516  
Cooling Degree Days 9 3  
Month to date cooling degree days 32 35  
Year to date cooling degree days 66 62  
Growing Degree Days 23 (Base 50)    
Moisture  
Dew Point 59 °F    
Average Humidity 67    
Maximum Humidity 87    
Minimum Humidity 47    
Precipitation  
Precipitation 0.00 in 0.18 in 2.74 in (1990)
Month to date precipitation 2.55 2.81  
Year to date precipitation 20.02 17.69  
Snow  
Snow 0.00 in 0.00 in 0.00 in (2002)
Month to date snowfall 0.0 0.0  
Since 1 July snowfall 12.3 11.8  
Snow Depth 0.00 in    
Sea Level Pressure  
Sea Level Pressure 29.93 in    
Wind  
Wind Speed 5 mph (WSW)    
Max Wind Speed 16 mph    
Max Gust Speed 25 mph    
Visibility 10 miles    
Events      
T = Trace of Precipitation, MM = Missing Value Source: NWS Daily Summary

Daily Weather History Graph

Daily Weather History Graph

Search for Another Location

Airport:

Trip Planner

Search our weather history database for the weather conditions in past years. The results will help you decide how hot, cold, wet, or windy it might be!

Date:

Astronomy

May. 16, 2013 Rise Set
Actual Time 5:38 AM CDT 7:54 PM CDT
Civil Twilight 5:08 AM CDT 8:24 PM CDT
Nautical Twilight 4:32 AM CDT 9:01 PM CDT
Astronomical Twilight 3:52 AM CDT 9:41 PM CDT
Moon 11:09 AM CDT (5/16) 12:16 AM CDT (5/16)
Length of Visible Light 15h 15m
Length of Day
14h 16m
Waxing Crescent, 36% of the Moon is Illuminated
May 16
Waxing Crescent
May 17
First Quarter
May 24
Full
May 31
Last Quarter
Jun 8
New

Hourly Weather History & Observations

Time (CDT) Temp. Heat Index Dew Point Humidity Pressure Visibility Wind Dir Wind Speed Gust Speed Precip Events Conditions
12:54 AM 69.1 °F - 54.0 °F 58% 29.91 in 10.0 mi SSW 6.9 mph - N/A   Clear
1:54 AM 66.9 °F - 54.0 °F 63% 29.90 in 10.0 mi SSW 3.5 mph - N/A   Clear
2:54 AM 66.9 °F - 53.1 °F 61% 29.89 in 10.0 mi Calm Calm - N/A   Clear
3:54 AM 66.0 °F - 54.0 °F 65% 29.90 in 10.0 mi SW 4.6 mph - N/A   Clear
4:54 AM 66.9 °F - 55.0 °F 66% 29.91 in 10.0 mi SW 6.9 mph - N/A   Clear
5:54 AM 66.9 °F - 55.9 °F 68% 29.92 in 10.0 mi SW 5.8 mph - N/A   Partly Cloudy
6:54 AM 70.0 °F - 57.9 °F 65% 29.94 in 10.0 mi WSW 12.7 mph - N/A   Mostly Cloudy
7:54 AM 70.0 °F - 57.9 °F 65% 29.96 in 10.0 mi WSW 11.5 mph - N/A   Partly Cloudy
8:54 AM 72.0 °F - 57.9 °F 61% 29.94 in 10.0 mi West 11.5 mph - N/A   Clear
9:54 AM 73.9 °F - 59.0 °F 59% 29.95 in 10.0 mi WSW 12.7 mph - N/A   Clear
10:54 AM 73.9 °F - 60.1 °F 62% 29.97 in 10.0 mi WSW 8.1 mph - N/A   Overcast
11:54 AM 77.0 °F - 62.1 °F 60% 29.97 in 10.0 mi West 6.9 mph - N/A   Mostly Cloudy
12:54 PM 77.0 °F - 63.0 °F 62% 29.96 in 10.0 mi NE 6.9 mph - N/A   Overcast
1:54 PM 80.1 °F 81.7 °F 64.0 °F 58% 29.95 in 10.0 mi North 3.5 mph - N/A   Clear
2:54 PM 81.0 °F 81.7 °F 61.0 °F 50% 29.94 in 10.0 mi Calm Calm - N/A   Scattered Clouds
3:54 PM 82.0 °F 82.4 °F 60.1 °F 47% 29.92 in 10.0 mi WSW 8.1 mph - N/A   Clear
4:54 PM 80.6 °F 81.8 °F 62.6 °F 54% 29.93 in 10.0 mi Calm Calm - N/A   Clear
5:54 PM 78.1 °F - 64.9 °F 64% 29.92 in 10.0 mi NNE 4.6 mph - N/A   Scattered Clouds
6:54 PM 75.9 °F - 66.0 °F 71% 29.92 in 10.0 mi ENE 3.5 mph - N/A   Clear
7:54 PM 73.9 °F - 57.0 °F 55% 29.92 in 10.0 mi SSW 3.5 mph - N/A   Clear
8:54 PM 71.1 °F - 57.9 °F 63% 29.94 in 10.0 mi Calm Calm - N/A   Clear
9:54 PM 68.0 °F - 60.1 °F 76% 29.95 in 10.0 mi ENE 3.5 mph - N/A   Clear
10:54 PM 66.9 °F - 60.1 °F 79% 29.95 in 10.0 mi ENE 3.5 mph - N/A   Clear
11:54 PM 66.0 °F - 62.1 °F 87% 29.96 in 10.0 mi Calm Calm - N/A   Clear